Wind_Speed
6 6 6 7 8 8 8 8 7 8 8 9 9 9 9 10 10 10 10 10 10 10 10 9 8 8 8 8 7 6 6 6 6 6 6 6 5 5 4 4 4 3 3 4
7 7 7 8 8 8 7 7 7 8 8 8 8 8 9 9 9 9 9 10 10 10 10 9 8 8 7 7 7 6 6 5 5 5 5 5 5 5 5 4 3 3 3 3
8 8 8 8 8 8 8 8 7 7 7 7 8 8 8 8 8 8 8 9 9 9 9 9 8 7 6 6 6 7 6 5 5 5 6 6 5 6 5 4 3 2 2 2
8 8 8 8 7 8 8 8 8 8 8 8 8 8 8 8 7 7 8 8 8 8 8 8 7 7 7 7 7 7 7 6 6 6 6 7 6 5 5 4 3 2 2 2
9 9 8 8 7 8 7 7 7 8 8 7 7 8 8 9 8 8 8 8 8 7 8 7 7 7 7 7 7 7 8 7 6 7 7 6 5 5 5 4 3 2 2 2
9 9 9 8 8 8 7 7 6 7 8 7 7 9 9 10 9 8 8 7 8 8 7 7 7 7 7 6 7 7 8 7 7 8 7 6 6 5 5 4 3 3 3 2
9 9 9 9 8 8 8 8 7 7 7 8 9 10 9 9 8 8 7 7 7 7 7 7 7 7 6 7 7 8 8 8 8 7 6 7 7 6 6 5 4 4 4 3
9 10 9 10 10 9 9 9 7 7 7 8 9 9 9 9 8 8 8 8 8 8 8 8 8 8 7 8 8 8 7 7 7 6 6 6 6 6 6 5 5 5 5 4
10 11 10 10 10 10 9 9 9 8 8 9 9 8 8 8 8 8 8 8 8 9 9 9 9 9 9 9 8 8 7 7 7 6 6 7 6 6 7 6 6 6 6 6
12 12 12 11 11 10 10 10 9 9 8 9 9 9 10 9 9 9 9 9 9 9 9 9 9 9 9 8 8 7 7 7 7 7 7 7 7 7 7 7 7 7 7 7
14 14 13 13 12 11 10 10 11 11 10 9 9 9 10 9 9 9 9 9 9 9 8 8 8 9 8 8 8 7 7 8 7 7 7 7 8 8 9 9 8 8 8 8
16 16 15 14 13 13 12 12 12 11 11 11 11 10 10 10 10 10 10 9 9 8 8 8 8 9 8 8 8 8 8 8 8 8 8 9 9 9 9 9 9 9 9 8
18 17 16 15 15 14 13 13 12 12 12 12 11 11 11 11 11 11 10 10 9 8 8 8 8 9 9 9 9 8 8 8 8 8 8 8 8 9 9 9 9 9 9 9
21 19 18 17 16 16 15 14 13 13 13 12 12 12 12 12 11 11 10 10 9 9 9 9 9 9 9 9 10 9 9 9 9 8 8 9 9 9 9 9 9 9 10 10
23 21 20 19 18 18 17 16 15 14 14 14 12 12 12 12 12 11 11 10 10 9 9 9 9 9 10 9 9 9 10 9 9 9 9 9 9 9 9 10 10 10 10 11
24 23 21 20 19 19 19 18 17 15 15 14 13 12 12 12 12 11 11 11 10 10 10 9 9 10 10 10 10 10 10 10 10 10 10 10 10 10 10 10 11 11 12 12
23 24 23 22 21 21 21 18 17 17 16 15 14 13 13 13 13 11 11 11 11 10 10 10 10 10 10 10 10 10 10 10 10 10 11 11 11 11 10 11 12 12 12 13
25 25 24 23 22 23 21 19 19 18 17 16 15 14 14 14 13 12 12 12 11 11 11 11 10 11 11 10 10 10 10 10 10 10 11 11 11 11 11 12 13 12 13 13
26 26 25 24 24 24 22 19 19 19 17 16 16 15 14 14 14 14 12 12 12 12 12 12 12 12 12 11 11 10 10 10 10 11 11 11 12 12 13 13 13 13 13 14
27 27 27 26 26 26 23 20 20 20 19 18 17 16 15 15 15 14 13 12 12 13 13 13 13 13 12 13 12 11 11 11 11 11 11 11 12 12 13 14 14 14 14 14
29 29 29 28 27 27 23 21 21 21 19 19 19 18 16 16 16 15 14 14 13 13 13 13 13 13 13 13 13 13 12 12 12 12 12 12 12 12 13 14 14 15 15 15
30 30 30 28 28 27 24 24 23 22 21 21 20 19 18 17 17 16 15 15 15 15 14 14 14 13 13 13 13 13 13 13 14 14 13 13 14 14 14 14 14 14 15 15
30 30 29 30 28 25 25 26 25 25 24 22 21 21 20 19 19 18 17 17 17 16 16 15 14 14 14 14 14 14 14 15 15 15 15 15 16 15 15 15 15 15 15 15
30 29 29 29 28 27 27 27 26 26 25 24 22 23 22 21 21 20 19 19 18 17 17 17 16 16 15 15 15 15 16 16 16 16 16 17 16 16 16 16 16 16 16 16
30 30 30 31 30 29 29 28 27 27 26 25 25 24 23 22 21 21 21 20 19 18 18 17 17 17 17 17 17 17 17 17 17 17 17 17 17 17 17 17 17 17 17 17
32 32 32 31 31 30 30 30 29 29 28 26 25 24 24 23 22 22 22 21 20 20 19 19 18 18 18 18 18 18 18 19 18 18 18 18 18 18 18 18 18 18 18 18
Wind_Direction
292 285 288 293 295 288 282 281 277 278 284 287 287 288 291 292 288 279 275 276 275 266 264 263 264 266 269 272 270 269 266 260 260 262 261 260 247 251 257 273 283 301 319 329
283 285 282 281 287 287 285 278 280 277 283 288 291 288 288 293 293 283 277 277 275 267 263 261 268 270 272 267 265 270 272 262 260 261 261 265 248 248 256 266 275 301 320 331
282 285 281 280 284 283 283 284 284 283 285 290 293 292 291 295 298 290 284 280 278 269 259 261 264 266 264 267 266 265 265 265 264 264 264 269 253 250 246 256 257 281 309 333
276 276 278 281 282 283 284 287 284 283 286 291 295 294 292 296 300 299 293 285 282 266 260 258 259 261 258 263 268 270 268 269 264 263 263 260 249 242 239 241 247 264 292 324
277 273 274 276 281 282 286 287 287 287 288 293 297 295 290 296 298 298 294 286 277 268 265 262 259 258 259 268 268 271 274 271 265 262 263 250 244 242 232 229 239 251 274 304
275 272 271 272 276 278 282 285 284 285 290 295 296 293 289 290 289 288 288 287 276 272 265 260 258 258 262 268 269 271 273 266 264 262 251 241 240 240 229 226 235 251 263 277
275 275 273 270 272 271 274 280 284 288 293 296 292 290 290 291 292 289 288 288 279 276 265 264 266 269 268 270 271 269 271 264 262 260 250 240 238 238 233 233 239 251 260 272
272 279 277 272 272 275 275 278 275 277 283 292 291 287 290 293 295 291 289 289 281 273 272 267 268 274 271 270 271 271 268 261 256 251 254 240 236 236 238 242 243 247 258 270
267 272 274 272 272 274 274 269 268 271 275 283 291 292 296 298 296 294 290 289 287 277 271 269 269 268 267 266 267 264 258 252 246 248 252 244 234 239 242 243 247 253 261 266
261 264 271 269 268 270 268 264 260 262 268 275 285 286 290 299 293 291 291 291 292 282 273 266 263 263 259 258 261 256 251 248 253 256 257 246 238 242 242 248 250 256 262 267
255 260 265 269 271 271 267 262 259 258 263 272 279 288 294 297 297 293 293 293 292 284 277 269 261 258 253 255 257 251 249 251 254 255 255 251 243 241 243 248 250 256 263 265
252 255 259 265 270 269 267 266 262 260 261 265 270 280 290 295 296 294 295 295 295 285 279 272 264 259 256 257 254 246 248 252 254 256 254 252 246 245 248 250 255 259 263 271
250 249 254 259 262 264 263 262 260 259 259 259 262 276 283 289 291 290 291 294 293 285 278 274 267 264 260 260 256 251 252 255 256 257 254 249 250 250 254 255 257 259 264 273
250 249 249 252 257 261 262 261 258 255 256 255 260 269 276 283 287 286 286 286 286 280 276 273 266 264 261 262 261 256 256 257 256 253 254 252 250 251 254 256 256 261 265 272
247 248 248 250 252 252 256 259 258 257 257 257 260 265 271 278 282 281 279 279 280 276 272 270 266 265 264 264 262 260 258 258 254 252 255 257 253 252 256 257 262 264 268 275
245 246 246 247 250 251 253 257 257 256 258 259 259 260 264 271 278 277 276 274 277 278 278 273 272 268 264 263 262 263 259 260 259 256 254 255 255 256 258 262 268 272 274 278
243 244 244 246 248 251 253 255 257 257 258 258 258 259 263 270 275 278 276 272 273 278 278 275 274 269 264 264 266 263 262 261 258 255 251 254 257 261 262 265 269 274 278 279
240 241 243 244 245 247 253 253 254 255 255 255 255 257 261 267 271 272 271 269 270 275 276 272 272 271 267 266 266 264 263 262 260 253 253 256 261 263 264 268 271 274 277 279
239 239 241 243 245 249 250 250 251 254 254 254 255 256 260 263 266 265 265 267 268 271 274 273 269 269 270 269 266 265 263 265 264 262 260 259 262 265 267 268 271 273 276 280
236 237 240 242 245 248 251 249 250 252 253 255 257 256 257 262 264 265 265 264 265 268 272 274 274 271 270 269 267 264 264 266 266 264 263 262 263 266 267 269 271 275 277 279
237 238 240 243 246 249 249 247 249 252 254 255 257 257 258 259 262 265 267 266 266 267 269 272 275 274 269 266 266 264 264 264 263 264 263 263 265 268 271 273 274 275 277 280
238 241 242 243 245 247 248 247 249 252 253 254 256 258 258 257 259 262 263 264 264 266 268 269 272 272 269 266 264 264 263 263 263 263 263 264 265 269 273 276 277 277 279 281
239 241 244 245 247 249 248 249 250 251 253 254 254 256 257 257 257 258 261 262 263 266 270 271 271 269 268 265 262 263 263 262 263 262 263 264 267 269 271 274 276 278 282 283
238 239 241 244 245 247 247 248 249 250 252 254 253 255 256 257 256 256 258 261 264 267 269 271 272 269 268 266 263 264 264 263 263 264 265 268 268 269 270 273 276 279 281 283
238 238 240 242 243 244 245 248 248 247 250 253 254 255 257 256 255 254 257 260 262 264 267 269 271 269 266 265 264 264 264 265 265 266 267 268 269 269 271 272 274 277 278 280
239 240 240 242 243 245 247 248 248 248 249 252 253 253 254 253 253 253 256 258 260 262 265 267 269 270 268 265 264 265 265 265 266 267 268 269 270 269 270 272 273 275 276 278
Height
5853 5854 5853 5853 5853 5853 5853 5852 5852 5852 5852 5852 5852 5852 5852 5851 5851 5852 5852 5852 5853 5853 5854 5854 5855 5856 5856 5857 5857 5858 5858 5858 5859 5860 5861 5862 5862 5863 5864 5864 5864 5864 5864 5863
5853 5853 5853 5852 5852 5852 5852 5852 5851 5851 5851 5851 5850 5850 5850 5850 5850 5850 5850 5850 5851 5851 5852 5853 5854 5855 5855 5855 5856 5856 5857 5857 5858 5859 5860 5860 5861 5862 5863 5863 5863 5864 5863 5863
5852 5853 5852 5852 5851 5851 5851 5851 5851 5850 5850 5850 5850 5850 5849 5848 5848 5848 5848 5849 5849 5850 5851 5851 5852 5853 5854 5854 5854 5855 5856 5856 5857 5858 5859 5859 5860 5861 5861 5862 5863 5863 5863 5863
5850 5851 5851 5851 5850 5850 5850 5850 5850 5849 5849 5849 5849 5848 5848 5847 5847 5847 5847 5847 5848 5848 5849 5850 5851 5851 5852 5853 5853 5854 5854 5855 5856 5856 5857 5858 5859 5859 5861 5861 5862 5862 5862 5862
5849 5849 5849 5849 5849 5849 5849 5849 5848 5848 5848 5848 5848 5847 5847 5846 5846 5846 5846 5846 5847 5847 5848 5848 5849 5850 5850 5851 5851 5852 5853 5854 5854 5855 5856 5857 5858 5859 5860 5860 5861 5862 5862 5862
5848 5848 5848 5848 5848 5848 5848 5848 5848 5847 5847 5847 5847 5847 5846 5845 5845 5845 5845 5845 5845 5846 5847 5847 5848 5848 5849 5849 5850 5851 5851 5852 5853 5854 5854 5856 5857 5858 5859 5860 5861 5861 5862 5862
5846 5846 5846 5847 5847 5847 5847 5847 5847 5846 5846 5846 5846 5845 5846 5844 5844 5844 5844 5844 5844 5845 5845 5846 5846 5847 5847 5848 5849 5849 5850 5851 5851 5852 5853 5854 5856 5857 5858 5859 5859 5860 5861 5861
5844 5844 5845 5845 5846 5845 5845 5846 5846 5846 5846 5845 5844 5844 5844 5843 5843 5843 5843 5843 5843 5843 5844 5844 5845 5845 5846 5846 5847 5848 5848 5849 5850 5851 5852 5853 5854 5856 5856 5857 5858 5859 5860 5860
5842 5843 5842 5843 5843 5844 5843 5843 5844 5844 5844 5844 5843 5843 5842 5842 5842 5842 5841 5841 5841 5842 5842 5842 5843 5843 5844 5844 5845 5846 5847 5848 5849 5850 5851 5852 5853 5854 5855 5856 5857 5858 5858 5858
5840 5840 5840 5840 5841 5841 5842 5842 5842 5842 5842 5843 5843 5842 5841 5841 5840 5840 5840 5840 5840 5840 5840 5840 5841 5841 5842 5842 5843 5844 5845 5846 5847 5848 5849 5850 5851 5852 5854 5855 5855 5856 5856 5857
5836 5837 5838 5838 5839 5839 5840 5840 5840 5840 5841 5841 5841 5842 5839 5839 5838 5838 5838 5838 5838 5838 5838 5838 5838 5839 5840 5841 5842 5842 5843 5844 5845 5846 5847 5848 5850 5851 5852 5853 5854 5854 5854 5855
5833 5834 5834 5836 5836 5836 5837 5837 5838 5839 5839 5839 5839 5842 5838 5837 5837 5836 5836 5836 5836 5836 5836 5836 5837 5837 5838 5839 5840 5841 5842 5843 5843 5844 5845 5846 5847 5849 5850 5850 5851 5852 5852 5853
5829 5830 5832 5833 5835 5834 5834 5834 5835 5836 5836 5837 5837 5840 5837 5836 5835 5835 5834 5834 5834 5834 5834 5835 5835 5836 5836 5837 5838 5839 5840 5841 5842 5842 5843 5844 5845 5846 5847 5848 5849 5849 5850 5850
5824 5826 5828 5830 5830 5830 5830 5831 5832 5833 5833 5834 5835 5835 5835 5834 5833 5833 5833 5833 5832 5832 5832 5833 5833 5834 5834 5835 5836 5837 5837 5838 5839 5840 5841 5842 5843 5844 5845 5846 5846 5847 5847 5848
5819 5821 5823 5824 5826 5826 5827 5827 5828 5829 5830 5831 5832 5832 5832 5832 5831 5831 5831 5831 5831 5831 5831 5831 5831 5832 5832 5833 5834 5834 5835 5836 5837 5838 5839 5840 5841 5842 5842 5843 5843 5844 5845 5845
5813 5815 5817 5819 5821 5822 5822 5823 5824 5826 5827 5828 5829 5829 5829 5829 5829 5828 5828 5828 5828 5829 5829 5829 5829 5829 5830 5831 5831 5832 5833 5833 5834 5835 5836 5837 5838 5839 5840 5840 5841 5841 5842 5842
5807 5810 5812 5814 5816 5816 5818 5820 5821 5822 5823 5824 5825 5827 5826 5826 5826 5826 5826 5826 5826 5827 5827 5827 5827 5827 5827 5828 5829 5830 5830 5831 5831 5832 5833 5834 5835 5836 5837 5837 5838 5838 5838 5838
5801 5803 5805 5808 5810 5811 5816 5816 5817 5817 5819 5820 5821 5822 5823 5823 5823 5823 5823 5824 5824 5824 5824 5824 5825 5825 5825 5826 5826 5827 5827 5828 5829 5830 5831 5832 5832 5833 5834 5834 5834 5835 5835 5835
5795 5798 5800 5802 5803 5806 5809 5811 5812 5813 5814 5816 5817 5818 5819 5819 5820 5820 5820 5821 5821 5822 5822 5822 5822 5822 5822 5823 5824 5824 5825 5825 5826 5827 5827 5828 5829 5830 5830 5831 5831 5831 5831 5831
5788 5791 5794 5796 5798 5800 5805 5806 5806 5809 5810 5811 5812 5813 5815 5815 5816 5817 5817 5817 5818 5818 5819 5819 5819 5819 5820 5820 5820 5821 5822 5822 5823 5824 5824 5825 5826 5826 5827 5827 5827 5827 5827 5827
5781 5784 5786 5789 5791 5793 5799 5800 5802 5805 5806 5806 5807 5809 5810 5811 5812 5813 5813 5814 5814 5815 5815 5815 5816 5816 5816 5817 5817 5818 5818 5819 5820 5820 5821 5822 5822 5823 5823 5823 5823 5823 5823 5823
5774 5777 5780 5782 5784 5789 5792 5794 5796 5798 5799 5800 5802 5803 5805 5806 5807 5808 5809 5810 5810 5811 5811 5812 5812 5812 5812 5813 5813 5814 5815 5815 5816 5817 5817 5818 5818 5819 5819 5819 5819 5819 5819 5819
5767 5771 5773 5776 5780 5783 5784 5787 5789 5791 5793 5794 5796 5798 5799 5801 5802 5804 5805 5805 5806 5807 5807 5807 5808 5808 5808 5809 5809 5810 5811 5811 5812 5812 5813 5814 5814 5815 5815 5815 5815 5815 5815 5815
5760 5763 5766 5769 5772 5775 5777 5779 5782 5785 5786 5788 5790 5792 5794 5795 5797 5798 5799 5800 5801 5802 5802 5803 5803 5803 5804 5804 5805 5806 5806 5806 5807 5808 5809 5809 5810 5810 5811 5811 5811 5811 5810 5810
5752 5756 5758 5761 5765 5767 5769 5772 5775 5777 5779 5781 5783 5785 5787 5789 5791 5792 5794 5795 5795 5796 5797 5797 5798 5799 5799 5799 5800 5801 5801 5802 5802 5803 5804 5804 5805 5805 5805 5806 5806 5806 5806 5805
5744 5748 5750 5753 5757 5759 5762 5764 5767 5769 5772 5774 5776 5778 5780 5782 5784 5786 5787 5788 5789 5790 5791 5792 5793 5793 5794 5794 5795 5796 5796 5797 5798 5798 5798 5799 5799 5800 5800 5800 5800 5800 5800 5800